,,,PA_Meas_PMT16A,,PR_Meas_QMR101_102,,RH_Meas_QMH101,,SR_Meas_QMS101,,TA_Meas_QMH101,,GenWind,,GenWind,
date,time,status,PA,status,PR,status,RH,status,SR,status,TA,status,DirAvg,status,SpdAvg,
2009-03-03, 00:00:04,VALID,1000.98,VALID,0,VALID,94.1114,VALID,0,VALID,24.1696,VALID,176,VALID,0.678516,
2009-03-03, 00:01:04,VALID,1000.93,VALID,0,VALID,93.974,VALID,0,VALID,24.15,VALID,176,VALID,0.691797,
2009-03-03, 00:02:04,VALID,1000.92,VALID,0,VALID,93.8748,VALID,0,VALID,24.1714,VALID,171,VALID,0.780859,
2009-03-03, 00:03:04,VALID,1000.91,VALID,0,VALID,93.8748,VALID,0,VALID,24.15,VALID,158,VALID,0.914063,
2009-03-03, 00:04:04,VALID,1000.87,VALID,0,VALID,93.8062,VALID,0,VALID,24.2104,VALID,158,VALID,0.843359,
2009-03-03, 00:05:04,VALID,1000.87,VALID,0,VALID,93.7909,VALID,0,VALID,24.2104,VALID,159,VALID,0.855078,
2009-03-03, 00:06:04,VALID,1000.83,VALID,0,VALID,93.8138,VALID,0,VALID,24.2299,VALID,161,VALID,0.707031,
2009-03-03, 00:07:04,VALID,1000.82,VALID,0,VALID,93.8291,VALID,0,VALID,24.2281,VALID,162,VALID,0.526563,
2009-03-03, 00:08:04,VALID,1000.78,VALID,0,VALID,93.7223,VALID,0,VALID,24.2495,VALID,163,VALID,0.460938,
2009-03-03, 00:09:04,VALID,1000.77,VALID,0,VALID,93.7146,VALID,0,VALID,24.2299,VALID,174,VALID,0.479688,
2009-03-03, 00:10:04,VALID,1000.75,VALID,0,VALID,93.6612,VALID,0,VALID,24.2086,VALID,185,VALID,0.570703,
2009-03-03, 00:11:04,VALID,1000.74,VALID,0,VALID,93.5849,VALID,0,VALID,24.2299,VALID,186,VALID,0.347656,
2009-03-03, 00:12:04,VALID,1000.73,VALID,0,VALID,93.4934,VALID,0,VALID,24.2086,VALID,210,VALID,0.614453,
2009-03-03, 00:13:04,VALID,1000.69,VALID,0,VALID,93.3713,VALID,0,VALID,24.2086,VALID,210,VALID,0.677344,
2009-03-03, 00:14:04,VALID,1000.67,VALID,0,VALID,93.3637,VALID,0,VALID,24.2495,VALID,210,VALID,0.481641,
2009-03-03, 00:15:04,VALID,1000.65,VALID,0,VALID,93.3408,VALID,0,VALID,24.2476,VALID,191,VALID,0.376953,
2009-03-03, 00:16:04,VALID,1000.63,VALID,0,VALID,93.3026,VALID,0,VALID,24.2885,VALID,190,VALID,0.397266,
2009-03-03, 00:17:04,VALID,1000.63,VALID,0,VALID,93.1958,VALID,0,VALID,24.269,VALID,190,VALID,0.499219,
2009-03-03, 00:18:04,VALID,1000.63,VALID,0,VALID,93.1119,VALID,0,VALID,24.269,VALID,190,VALID,0.909375,
2009-03-03, 00:19:04,VALID,1000.61,VALID,0,VALID,92.944,VALID,0,VALID,24.2885,VALID,187,VALID,1.06797,
2009-03-03, 00:20:04,VALID,1000.57,VALID,0,VALID,93.0051,VALID,0,VALID,24.308,VALID,169,VALID,0.811719,
2009-03-03, 00:21:04,VALID,1000.56,VALID,0,VALID,93.0737,VALID,0,VALID,24.3275,VALID,166,VALID,1.07305,
2009-03-03, 00:22:04,VALID,1000.55,VALID,0,VALID,92.9822,VALID,0,VALID,24.3275,VALID,161,VALID,1.20195,
2009-03-03, 00:23:04,VALID,1000.55,VALID,0,VALID,92.944,VALID,0,VALID,24.2866,VALID,166,VALID,1.29141,
2009-03-03, 00:24:04,VALID,1000.55,VALID,0,VALID,92.9364,VALID,0,VALID,24.2866,VALID,168,VALID,1.2543,
2009-03-03, 00:25:04,VALID,1000.53,VALID,0,VALID,92.8448,VALID,0,VALID,24.2885,VALID,169,VALID,1.28711,
2009-03-03, 00:26:04,VALID,1000.53,VALID,0,VALID,92.9898,VALID,0,VALID,24.2495,VALID,162,VALID,1.28828,
2009-03-03, 00:27:04,VALID,1000.53,VALID,0,VALID,93.089,VALID,0,VALID,24.2281,VALID,163,VALID,1.02109,
2009-03-03, 00:28:04,VALID,1000.52,VALID,0,VALID,93.2111,VALID,0,VALID,24.2495,VALID,163,VALID,0.979297,
2009-03-03, 00:29:04,VALID,1000.49,VALID,0,VALID,93.1805,VALID,0,VALID,24.2299,VALID,162,VALID,1.12891,
2009-03-03, 00:30:04,VALID,1000.51,VALID,0,VALID,93.2034,VALID,0,VALID,24.1891,VALID,162,VALID,1.02734,
2009-03-03, 00:31:04,VALID,1000.5,VALID,0,VALID,93.1882,VALID,0,VALID,24.1909,VALID,168,VALID,1.18242,
2009-03-03, 00:32:04,VALID,1000.49,VALID,0,VALID,93.2721,VALID,0,VALID,24.1909,VALID,170,VALID,0.992969,
2009-03-03, 00:33:04,VALID,1000.46,VALID,0,VALID,93.3026,VALID,0,VALID,24.1909,VALID,176,VALID,1.05117,
2009-03-03, 00:34:04,VALID,1000.44,VALID,0,VALID,93.3331,VALID,0,VALID,24.1909,VALID,177,VALID,0.926562,
2009-03-03, 00:35:04,VALID,1000.41,VALID,0,VALID,93.3331,VALID,0,VALID,24.15,VALID,168,VALID,0.746484,
2009-03-03, 00:36:04,VALID,1000.4,VALID,0,VALID,93.2797,VALID,0,VALID,24.1519,VALID,167,VALID,1.07227,
2009-03-03, 00:37:04,VALID,1000.38,VALID,0,VALID,93.295,VALID,0,VALID,24.111,VALID,170,VALID,1.01484,
2009-03-03, 00:38:04,VALID,1000.37,VALID,0,VALID,93.2034,VALID,0,VALID,24.111,VALID,176,VALID,0.916406,
2009-03-03, 00:39:04,VALID,1000.35,VALID,0,VALID,93.234,VALID,0,VALID,24.1128,VALID,176,VALID,0.935938,
2009-03-03, 00:40:04,VALID,1000.33,VALID,0,VALID,93.2797,VALID,0,VALID,24.111,VALID,176,VALID,0.670703,
2009-03-03, 00:41:04,VALID,1000.32,VALID,0,VALID,93.2187,VALID,0,VALID,24.111,VALID,176,VALID,0.80625,
2009-03-03, 00:42:04,VALID,1000.28,VALID,0,VALID,93.295,VALID,0,VALID,24.111,VALID,176,VALID,0.822656,
2009-03-03, 00:43:04,VALID,1000.26,VALID,0,VALID,93.3713,VALID,0,VALID,24.1324,VALID,173,VALID,0.751953,
2009-03-03, 00:44:04,VALID,1000.26,VALID,0,VALID,93.4094,VALID,0,VALID,24.1305,VALID,176,VALID,0.869531,
2009-03-03, 00:45:04,VALID,1000.23,VALID,0,VALID,93.4018,VALID,0,VALID,24.111,VALID,184,VALID,0.783594,
2009-03-03, 00:46:04,VALID,1000.21,VALID,0,VALID,93.4171,VALID,0,VALID,24.111,VALID,186,VALID,0.698828,
2009-03-03, 00:47:04,VALID,1000.16,VALID,0,VALID,93.356,VALID,0,VALID,24.111,VALID,192,VALID,1.08398,
2009-03-03, 00:48:04,VALID,1000.16,VALID,0,VALID,93.2797,VALID,0,VALID,24.0915,VALID,194,VALID,1.38789,
2009-03-03, 00:49:04,VALID,1000.14,VALID,0,VALID,93.295,VALID,0,VALID,24.111,VALID,191,VALID,0.896484,
2009-03-03, 00:50:04,VALID,1000.11,VALID,0,VALID,93.2645,VALID,0,VALID,24.0915,VALID,181,VALID,1.06328,
2009-03-03, 00:51:04,VALID,1000.09,VALID,0,VALID,93.2721,VALID,0,VALID,24.1128,VALID,202,VALID,0.921484,
2009-03-03, 00:52:04,VALID,1000.11,VALID,0,VALID,93.2874,VALID,0,VALID,24.0915,VALID,202,VALID,0.996094,
2009-03-03, 00:53:04,VALID,1000.06,VALID,0,VALID,93.2492,VALID,0,VALID,24.072,VALID,203,VALID,1.20586,
2009-03-03, 00:54:04,VALID,1000.09,VALID,0,VALID,93.2568,VALID,0,VALID,24.072,VALID,198,VALID,1.14297,
2009-03-03, 00:55:04,VALID,1000.07,VALID,0,VALID,93.2797,VALID,0,VALID,24.1128,VALID,200,VALID,0.891797,
2009-03-03, 00:56:04,VALID,1000.07,VALID,0,VALID,93.1958,VALID,0,VALID,24.0915,VALID,203,VALID,0.863672,
2009-03-03, 00:57:04,VALID,1000.05,VALID,0,VALID,93.1348,VALID,0,VALID,24.0915,VALID,201,VALID,1.02891,
2009-03-03, 00:58:04,VALID,1000.05,VALID,0,VALID,93.1729,VALID,0,VALID,24.0915,VALID,196,VALID,0.539844,
2009-03-03, 00:59:04,VALID,1000.03,VALID,0,VALID,93.1271,VALID,0,VALID,24.1128,VALID,213,VALID,0.505469,
2009-03-03, 01:00:04,VALID,1000.02,VALID,0,VALID,93.0966,VALID,0,VALID,24.0933,VALID,215,VALID,0.351953,
2009-03-03, 01:01:04,VALID,999.974,VALID,0,VALID,93.1271,VALID,0,VALID,24.1128,VALID,215,VALID,0.278906,
2009-03-03, 01:02:04,VALID,999.995,VALID,0,VALID,93.0661,VALID,0,VALID,24.0933,VALID,214,VALID,0.373437,
2009-03-03, 01:03:04,VALID,999.961,VALID,0,VALID,93.0966,VALID,0,VALID,24.0915,VALID,198,VALID,0.448438,
2009-03-03, 01:04:04,VALID,999.961,VALID,0,VALID,93.0814,VALID,0,VALID,24.072,VALID,198,VALID,0.101953,
2009-03-03, 01:05:04,VALID,999.95,VALID,0,VALID,93.0966,VALID,0,VALID,24.0933,VALID,198,VALID,0.858984,
2009-03-03, 01:06:04,VALID,999.954,VALID,0,VALID,93.0966,VALID,0,VALID,24.1128,VALID,194,VALID,0.629687,
2009-03-03, 01:07:04,VALID,999.949,VALID,0,VALID,93.0814,VALID,0,VALID,24.0915,VALID,194,VALID,0.339063,
2009-03-03, 01:08:04,VALID,999.943,VALID,0,VALID,93.0661,VALID,0,VALID,24.1324,VALID,194,VALID,0.475781,
2009-03-03, 01:09:04,VALID,999.927,VALID,0,VALID,93.0585,VALID,0,VALID,24.1519,VALID,200,VALID,0.668359,
2009-03-03, 01:10:04,VALID,999.912,VALID,0,VALID,93.0203,VALID,0,VALID,24.111,VALID,193,VALID,0.762891,
2009-03-03, 01:11:04,VALID,999.904,VALID,0,VALID,93.0432,VALID,0,VALID,24.1324,VALID,212,VALID,0.444141,
2009-03-03, 01:12:04,VALID,999.893,VALID,0,VALID,93.0661,VALID,0,VALID,24.1519,VALID,212,VALID,0.437891,
2009-03-03, 01:13:04,VALID,999.871,VALID,0,VALID,93.0356,VALID,0,VALID,24.111,VALID,198,VALID,0.484766,
2009-03-03, 01:14:04,VALID,999.827,VALID,0,VALID,93.0432,VALID,0,VALID,24.1519,VALID,188,VALID,0.730078,
2009-03-03, 01:15:04,VALID,999.832,VALID,0,VALID,93.0661,VALID,0,VALID,24.111,VALID,187,VALID,0.234766,
2009-03-03, 01:16:04,VALID,999.819,VALID,0,VALID,93.0661,VALID,0,VALID,24.1128,VALID,187,VALID,0.507813,
2009-03-03, 01:17:04,VALID,999.81,VALID,0,VALID,93.0814,VALID,0,VALID,24.1128,VALID,195,VALID,0.642187,
2009-03-03, 01:18:04,VALID,999.8,VALID,0,VALID,93.0661,VALID,0,VALID,24.1128,VALID,192,VALID,0.697266,
2009-03-03, 01:19:04,VALID,999.765,VALID,0,VALID,92.9822,VALID,0,VALID,24.0915,VALID,186,VALID,0.632422,
2009-03-03, 01:20:04,VALID,999.784,VALID,0,VALID,92.9974,VALID,0,VALID,24.0933,VALID,185,VALID,0.74375,
2009-03-03, 01:21:04,VALID,999.734,VALID,0,VALID,92.9745,VALID,0,VALID,24.0933,VALID,185,VALID,0.647266,
2009-03-03, 01:22:04,VALID,999.725,VALID,0,VALID,92.9593,VALID,0,VALID,24.072,VALID,183,VALID,0.565625,
2009-03-03, 01:23:04,VALID,999.745,VALID,0,VALID,92.9822,VALID,0,VALID,24.0525,VALID,179,VALID,0.643359,
2009-03-03, 01:24:04,VALID,999.744,VALID,0,VALID,92.9898,VALID,0,VALID,24.0525,VALID,170,VALID,0.840625,
2009-03-03, 01:25:04,VALID,999.708,VALID,0,VALID,93.1119,VALID,0,VALID,24.0738,VALID,172,VALID,1.03437,
2009-03-03, 01:26:04,VALID,999.732,VALID,0,VALID,93.1119,VALID,0,VALID,24.0525,VALID,170,VALID,0.913281,
2009-03-03, 01:27:04,VALID,999.692,VALID,0,VALID,93.1882,VALID,0,VALID,24.0738,VALID,164,VALID,0.798437,
2009-03-03, 01:28:04,VALID,999.641,VALID,0,VALID,93.1882,VALID,0,VALID,24.0329,VALID,157,VALID,0.786719,
2009-03-03, 01:29:04,VALID,999.668,VALID,0,VALID,93.1882,VALID,0,VALID,24.0348,VALID,157,VALID,0.748828,
2009-03-03, 01:30:04,VALID,999.638,VALID,0,VALID,93.2263,VALID,0,VALID,24.0153,VALID,156,VALID,0.901563,
2009-03-03, 01:31:04,VALID,999.649,VALID,0,VALID,93.2645,VALID,0,VALID,23.9957,VALID,163,VALID,0.899609,
2009-03-03, 01:32:04,VALID,999.619,VALID,0,VALID,93.3484,VALID,0,VALID,23.9549,VALID,156,VALID,0.846484,
2009-03-03, 01:33:04,VALID,999.6,VALID,0,VALID,93.3866,VALID,0,VALID,23.9762,VALID,155,VALID,0.715234,
2009-03-03, 01:34:04,VALID,999.591,VALID,0,VALID,93.4171,VALID,0,VALID,23.9354,VALID,159,VALID,0.830469,
2009-03-03, 01:35:04,VALID,999.575,VALID,0,VALID,93.44,VALID,0,VALID,23.9354,VALID,163,VALID,0.811328,
2009-03-03, 01:36:04,VALID,999.574,VALID,0,VALID,93.4552,VALID,0,VALID,23.9159,VALID,169,VALID,0.845312,
2009-03-03, 01:37:04,VALID,999.533,VALID,0,VALID,93.501,VALID,0,VALID,23.8963,VALID,167,VALID,0.7875,
2009-03-03, 01:38:04,VALID,999.567,VALID,0,VALID,93.5391,VALID,0,VALID,23.9177,VALID,162,VALID,0.844531,
2009-03-03, 01:39:04,VALID,999.536,VALID,0,VALID,93.6307,VALID,0,VALID,23.9159,VALID,161,VALID,0.865234,
2009-03-03, 01:40:04,VALID,999.522,VALID,0,VALID,93.5773,VALID,0,VALID,23.9159,VALID,164,VALID,0.857422,
2009-03-03, 01:41:04,VALID,999.493,VALID,0,VALID,93.5926,VALID,0,VALID,23.9159,VALID,167,VALID,0.453906,
2009-03-03, 01:42:04,VALID,999.498,VALID,0,VALID,93.646,VALID,0,VALID,23.9159,VALID,167,VALID,0.633203,
2009-03-03, 01:43:04,VALID,999.484,VALID,0,VALID,93.6688,VALID,0,VALID,23.9159,VALID,169,VALID,0.5875,
2009-03-03, 01:44:04,VALID,999.493,VALID,0,VALID,93.6917,VALID,0,VALID,23.9159,VALID,179,VALID,0.500391,
2009-03-03, 01:45:04,VALID,999.505,VALID,0,VALID,93.6841,VALID,0,VALID,23.9159,VALID,178,VALID,0.609766,
2009-03-03, 01:46:04,VALID,999.492,VALID,0,VALID,93.7146,VALID,0,VALID,23.9159,VALID,170,VALID,0.590625,
2009-03-03, 01:47:04,VALID,999.473,VALID,0,VALID,93.7299,VALID,0,VALID,23.9354,VALID,167,VALID,0.639844,
2009-03-03, 01:48:04,VALID,999.488,VALID,0,VALID,93.6917,VALID,0.112286,VALID,23.9159,VALID,152,VALID,0.664453,
2009-03-03, 01:49:04,VALID,999.482,VALID,0,VALID,93.6688,VALID,0,VALID,23.9159,VALID,144,VALID,0.58125,
2009-03-03, 01:50:04,VALID,999.448,VALID,0,VALID,93.6688,VALID,0,VALID,23.8963,VALID,144,VALID,0.5125,
2009-03-03, 01:51:04,VALID,999.448,VALID,0,VALID,93.6612,VALID,0,VALID,23.9177,VALID,128,VALID,0.686719,
2009-03-03, 01:52:04,VALID,999.415,VALID,0,VALID,93.6536,VALID,0,VALID,23.8768,VALID,114,VALID,0.6875,
2009-03-03, 01:53:04,VALID,999.426,VALID,0,VALID,93.6383,VALID,0,VALID,23.8982,VALID,111,VALID,0.509766,
2009-03-03, 01:54:04,VALID,999.394,VALID,0,VALID,93.646,VALID,0,VALID,23.8768,VALID,111,VALID,0.417578,
2009-03-03, 01:55:04,VALID,999.387,VALID,0,VALID,93.6917,VALID,0,VALID,23.8786,VALID,111,VALID,0.235938,
2009-03-03, 01:56:04,VALID,999.389,VALID,0,VALID,93.768,VALID,0,VALID,23.8768,VALID,111,VALID,0.250781,
2009-03-03, 01:57:04,VALID,999.359,VALID,0,VALID,93.8062,VALID,0,VALID,23.8768,VALID,111,VALID,0.294531,
2009-03-03, 01:58:04,VALID,999.349,VALID,0,VALID,93.6688,VALID,0,VALID,23.8378,VALID,111,VALID,0.185937,
2009-03-03, 01:59:04,VALID,999.332,VALID,0,VALID,93.6917,VALID,0,VALID,23.8183,VALID,111,VALID,0.310937,
2009-03-03, 02:00:04,VALID,999.287,VALID,0,VALID,93.7146,VALID,0,VALID,23.8006,VALID,111,VALID,0.269531,
2009-03-03, 02:01:04,VALID,999.278,VALID,0,VALID,93.7604,VALID,0,VALID,23.7811,VALID,111,VALID,0.254687,
2009-03-03, 02:02:04,VALID,999.271,VALID,0,VALID,93.8214,VALID,0,VALID,23.7402,VALID,111,VALID,0.286328,
2009-03-03, 02:03:04,VALID,999.253,VALID,0,VALID,93.8901,VALID,0,VALID,23.7402,VALID,111,VALID,0.288281,
2009-03-03, 02:04:04,VALID,999.249,VALID,0,VALID,93.9206,VALID,0,VALID,23.7402,VALID,111,VALID,0.236719,
2009-03-03, 02:05:04,VALID,999.222,VALID,0,VALID,93.9283,VALID,0,VALID,23.7012,VALID,111,VALID,0.308594,
2009-03-03, 02:06:04,VALID,999.215,VALID,0,VALID,93.9054,VALID,0,VALID,23.6817,VALID,111,VALID,0.298828,
2009-03-03, 02:07:04,VALID,999.202,VALID,0,VALID,93.9893,VALID,0,VALID,23.6622,VALID,108,VALID,0.447266,
2009-03-03, 02:08:04,VALID,999.175,VALID,0,VALID,94.0274,VALID,0,VALID,23.6427,VALID,86,VALID,0.670313,
2009-03-03, 02:09:04,VALID,999.194,VALID,0,VALID,94.058,VALID,0,VALID,23.6427,VALID,75,VALID,0.656641,
2009-03-03, 02:10:04,VALID,999.169,VALID,0,VALID,94.0808,VALID,0,VALID,23.6232,VALID,64,VALID,0.656641,
2009-03-03, 02:11:04,VALID,999.175,VALID,0,VALID,94.1648,VALID,0,VALID,23.5841,VALID,64,VALID,0.770703,
2009-03-03, 02:12:04,VALID,999.176,VALID,0,VALID,94.18,VALID,0,VALID,23.5841,VALID,63,VALID,0.725781,
2009-03-03, 02:13:04,VALID,999.178,VALID,0,VALID,94.2334,VALID,0,VALID,23.5646,VALID,61,VALID,0.685938,
2009-03-03, 02:14:04,VALID,999.189,VALID,0,VALID,94.2334,VALID,0,VALID,23.5859,VALID,61,VALID,0.508984,
2009-03-03, 02:15:04,VALID,999.172,VALID,0,VALID,94.2029,VALID,0.112286,VALID,23.5256,VALID,61,VALID,0.251953,
2009-03-03, 02:16:04,VALID,999.154,VALID,0,VALID,94.2868,VALID,0,VALID,23.5061,VALID,61,VALID,0.324219,
2009-03-03, 02:17:04,VALID,999.159,VALID,0,VALID,94.4776,VALID,0,VALID,23.5256,VALID,54,VALID,0.376172,
2009-03-03, 02:18:04,VALID,999.124,VALID,0,VALID,94.4928,VALID,0,VALID,23.5469,VALID,54,VALID,0.28125,
2009-03-03, 02:19:04,VALID,999.122,VALID,0,VALID,94.4318,VALID,0.112286,VALID,23.5256,VALID,54,VALID,0.128516,
2009-03-03, 02:20:04,VALID,999.095,VALID,0,VALID,94.4165,VALID,0,VALID,23.5061,VALID,54,VALID,0.00976563,
2009-03-03, 02:21:04,VALID,999.115,VALID,0,VALID,94.47,VALID,0,VALID,23.5079,VALID,54,VALID,0.0753906,
2009-03-03, 02:22:04,VALID,999.071,VALID,0,VALID,94.4547,VALID,0,VALID,23.5274,VALID,54,VALID,0,
2009-03-03, 02:23:04,VALID,999.088,VALID,0,VALID,94.5157,VALID,0,VALID,23.5079,VALID,54,VALID,0,
2009-03-03, 02:24:04,VALID,999.103,VALID,0,VALID,94.5462,VALID,0.112286,VALID,23.5274,VALID,54,VALID,0.00117188,
2009-03-03, 02:25:04,VALID,999.076,VALID,0,VALID,94.6073,VALID,0,VALID,23.5256,VALID,54,VALID,0.1875,
2009-03-03, 02:26:04,VALID,999.046,VALID,0,VALID,94.6073,VALID,0,VALID,23.5469,VALID,54,VALID,0.116016,
2009-03-03, 02:27:04,VALID,999.024,VALID,0,VALID,94.6302,VALID,0,VALID,23.5061,VALID,54,VALID,0.127734,
2009-03-03, 02:28:04,VALID,998.993,VALID,0,VALID,94.5844,VALID,0,VALID,23.5061,VALID,54,VALID,0.253516,
2009-03-03, 02:29:04,VALID,998.98,VALID,0,VALID,94.6912,VALID,0,VALID,23.5061,VALID,54,VALID,0.391406,
2009-03-03, 02:30:04,VALID,998.975,VALID,0,VALID,94.676,VALID,0,VALID,23.5274,VALID,48,VALID,0.60625,
2009-03-03, 02:31:04,VALID,998.981,VALID,0,VALID,94.6378,VALID,0.112286,VALID,23.4866,VALID,46,VALID,0.728516,
2009-03-03, 02:32:04,VALID,998.967,VALID,0,VALID,94.5997,VALID,0,VALID,23.4475,VALID,45,VALID,0.759375,
2009-03-03, 02:33:04,VALID,998.963,VALID,0,VALID,94.5768,VALID,0,VALID,23.4085,VALID,45,VALID,0.803125,
2009-03-03, 02:34:04,VALID,998.948,VALID,0,VALID,94.7217,VALID,0,VALID,23.428,VALID,45,VALID,0.855469,
2009-03-03, 02:35:04,VALID,998.941,VALID,0,VALID,94.6378,VALID,0,VALID,23.389,VALID,45,VALID,0.7625,
2009-03-03, 02:36:04,VALID,998.939,VALID,0,VALID,94.6836,VALID,0,VALID,23.3695,VALID,45,VALID,0.826953,
2009-03-03, 02:37:04,VALID,998.906,VALID,0,VALID,94.7828,VALID,0,VALID,23.3713,VALID,46,VALID,0.944922,
2009-03-03, 02:38:04,VALID,998.942,VALID,0,VALID,94.8667,VALID,0,VALID,23.3695,VALID,49,VALID,0.939453,
2009-03-03, 02:39:04,VALID,998.917,VALID,0,VALID,94.882,VALID,0,VALID,23.4103,VALID,52,VALID,0.883203,
2009-03-03, 02:40:04,VALID,998.893,VALID,0,VALID,94.8972,VALID,0,VALID,23.3908,VALID,52,VALID,1.04336,
2009-03-03, 02:41:04,VALID,998.904,VALID,0,VALID,94.8743,VALID,0,VALID,23.3908,VALID,52,VALID,0.882422,
2009-03-03, 02:42:04,VALID,998.932,VALID,0,VALID,94.8743,VALID,0,VALID,23.3908,VALID,52,VALID,0.767187,
2009-03-03, 02:43:04,VALID,998.926,VALID,0,VALID,94.882,VALID,0,VALID,23.3908,VALID,52,VALID,0.475781,
2009-03-03, 02:44:04,VALID,998.891,VALID,0,VALID,94.8743,VALID,0,VALID,23.3713,VALID,52,VALID,0.437109,
2009-03-03, 02:45:04,VALID,998.914,VALID,0,VALID,94.8438,VALID,0,VALID,23.3713,VALID,52,VALID,0.294141,
2009-03-03, 02:46:04,VALID,998.864,VALID,0,VALID,94.8362,VALID,0,VALID,23.3305,VALID,52,VALID,0.398047,
2009-03-03, 02:47:04,VALID,998.844,VALID,0,VALID,94.8896,VALID,0,VALID,23.3305,VALID,52,VALID,0.606641,
2009-03-03, 02:48:04,VALID,998.85,VALID,0,VALID,94.9583,VALID,0,VALID,23.3305,VALID,52,VALID,0.654688,
2009-03-03, 02:49:04,VALID,998.872,VALID,0,VALID,94.8972,VALID,0,VALID,23.3305,VALID,52,VALID,0.307031,
2009-03-03, 02:50:04,VALID,998.865,VALID,0,VALID,94.8591,VALID,0,VALID,23.311,VALID,52,VALID,0.195313,
2009-03-03, 02:51:04,VALID,998.846,VALID,0,VALID,94.8743,VALID,0,VALID,23.3323,VALID,52,VALID,0.468359,
2009-03-03, 02:52:04,VALID,998.85,VALID,0,VALID,94.8896,VALID,0,VALID,23.3127,VALID,52,VALID,0.603906,
2009-03-03, 02:53:04,VALID,998.853,VALID,0,VALID,94.9048,VALID,0,VALID,23.2932,VALID,54,VALID,0.780469,
2009-03-03, 02:54:04,VALID,998.827,VALID,0,VALID,94.8896,VALID,0,VALID,23.2932,VALID,45,VALID,0.85,
2009-03-03, 02:55:04,VALID,998.85,VALID,0,VALID,94.9048,VALID,0,VALID,23.2719,VALID,45,VALID,0.815625,
2009-03-03, 02:56:04,VALID,998.845,VALID,0,VALID,94.9277,VALID,0,VALID,23.2719,VALID,37,VALID,0.792969,
2009-03-03, 02:57:04,VALID,998.894,VALID,0,VALID,94.9506,VALID,0,VALID,23.2719,VALID,37,VALID,0.764453,
2009-03-03, 02:58:04,VALID,998.865,VALID,0,VALID,94.9583,VALID,0,VALID,23.2719,VALID,37,VALID,0.816406,
2009-03-03, 02:59:04,VALID,998.919,VALID,0,VALID,94.9583,VALID,0,VALID,23.2932,VALID,43,VALID,0.683594,
2009-03-03, 03:00:04,VALID,998.919,VALID,0,VALID,94.9354,VALID,0,VALID,23.2737,VALID,41,VALID,0.766797,
2009-03-03, 03:01:04,VALID,998.894,VALID,0,VALID,94.943,VALID,0,VALID,23.2719,VALID,41,VALID,0.535156,
2009-03-03, 03:02:04,VALID,998.918,VALID,0,VALID,94.9506,VALID,0,VALID,23.2524,VALID,40,VALID,0.764844,
2009-03-03, 03:03:04,VALID,998.954,VALID,0,VALID,94.9506,VALID,0,VALID,23.2524,VALID,35,VALID,0.762109,
2009-03-03, 03:04:04,VALID,998.944,VALID,0,VALID,94.9583,VALID,0,VALID,23.2524,VALID,27,VALID,0.757422,
2009-03-03, 03:05:04,VALID,998.975,VALID,0,VALID,94.9354,VALID,0,VALID,23.2737,VALID,27,VALID,0.682813,
2009-03-03, 03:06:04,VALID,998.967,VALID,0,VALID,94.943,VALID,0,VALID,23.2329,VALID,27,VALID,0.635938,
2009-03-03, 03:07:04,VALID,998.962,VALID,0,VALID,94.9354,VALID,0,VALID,23.2542,VALID,27,VALID,0.593359,
2009-03-03, 03:08:04,VALID,998.981,VALID,0,VALID,94.943,VALID,0,VALID,23.2542,VALID,27,VALID,0.573047,
2009-03-03, 03:09:04,VALID,998.992,VALID,0,VALID,94.9048,VALID,0,VALID,23.2329,VALID,27,VALID,0.583203,
2009-03-03, 03:10:04,VALID,998.973,VALID,0,VALID,94.943,VALID,0,VALID,23.2542,VALID,27,VALID,0.616406,
2009-03-03, 03:11:04,VALID,998.966,VALID,0,VALID,94.9201,VALID,0,VALID,23.2134,VALID,27,VALID,0.527344,
2009-03-03, 03:12:04,VALID,998.963,VALID,0,VALID,94.9354,VALID,0,VALID,23.2134,VALID,27,VALID,0.570703,
2009-03-03, 03:13:04,VALID,998.974,VALID,0,VALID,94.9888,VALID,0,VALID,23.2347,VALID,27,VALID,0.526563,
2009-03-03, 03:14:04,VALID,999.034,VALID,0,VALID,94.9583,VALID,0,VALID,23.2134,VALID,27,VALID,0.342969,
2009-03-03, 03:15:04,VALID,999.042,VALID,0,VALID,94.9201,VALID,0,VALID,23.2347,VALID,27,VALID,0.196875,
2009-03-03, 03:16:04,VALID,999.037,VALID,0,VALID,94.9354,VALID,0,VALID,23.2152,VALID,27,VALID,0.0273438,
2009-03-03, 03:17:04,VALID,999.011,VALID,0,VALID,94.9583,VALID,0,VALID,23.1939,VALID,27,VALID,0,
2009-03-03, 03:18:04,VALID,999.05,VALID,0,VALID,94.9735,VALID,0,VALID,23.2152,VALID,27,VALID,0,
2009-03-03, 03:19:04,VALID,999.057,VALID,0,VALID,95.0727,VALID,0,VALID,23.2134,VALID,27,VALID,0.280469,
2009-03-03, 03:20:04,VALID,999.045,VALID,0,VALID,95.0956,VALID,0,VALID,23.2329,VALID,27,VALID,0.335938,
2009-03-03, 03:21:04,VALID,999.056,VALID,0,VALID,95.0574,VALID,0,VALID,23.2719,VALID,27,VALID,0.355469,
2009-03-03, 03:22:04,VALID,999.102,VALID,0,VALID,95.0803,VALID,0,VALID,23.2524,VALID,27,VALID,0.367578,
2009-03-03, 03:23:04,VALID,999.096,VALID,0,VALID,95.0727,VALID,0,VALID,23.2737,VALID,27,VALID,0.308203,
2009-03-03, 03:24:04,VALID,999.117,VALID,0,VALID,95.0422,VALID,0,VALID,23.2719,VALID,27,VALID,0.246875,
2009-03-03, 03:25:04,VALID,999.136,VALID,0,VALID,95.0193,VALID,0,VALID,23.2932,VALID,27,VALID,0.339063,
2009-03-03, 03:26:04,VALID,999.116,VALID,0,VALID,95.0193,VALID,0.112286,VALID,23.2915,VALID,27,VALID,0.401563,
2009-03-03, 03:27:04,VALID,999.098,VALID,0,VALID,94.9964,VALID,0,VALID,23.2719,VALID,27,VALID,0.511719,
2009-03-03, 03:28:04,VALID,999.124,VALID,0,VALID,95.0422,VALID,0,VALID,23.2719,VALID,27,VALID,0.561719,
2009-03-03, 03:29:04,VALID,999.14,VALID,0,VALID,95.0651,VALID,0,VALID,23.2915,VALID,27,VALID,0.502344,
2009-03-03, 03:30:04,VALID,999.156,VALID,0,VALID,95.0193,VALID,0,VALID,23.2915,VALID,27,VALID,0.403516,
2009-03-03, 03:31:04,VALID,999.16,VALID,0,VALID,94.9888,VALID,0,VALID,23.2719,VALID,27,VALID,0.4,
2009-03-03, 03:32:04,VALID,999.173,VALID,0,VALID,95.0117,VALID,0,VALID,23.2719,VALID,27,VALID,0.288672,
2009-03-03, 03:33:04,VALID,999.199,VALID,0,VALID,94.9659,VALID,0,VALID,23.2524,VALID,27,VALID,0.305078,
2009-03-03, 03:34:04,VALID,999.196,VALID,0,VALID,94.9354,VALID,0,VALID,23.2329,VALID,27,VALID,0.369531,
2009-03-03, 03:35:04,VALID,999.185,VALID,0,VALID,94.9583,VALID,0,VALID,23.2542,VALID,27,VALID,0.436328,
2009-03-03, 03:36:04,VALID,999.185,VALID,0,VALID,94.9964,VALID,0,VALID,23.2329,VALID,27,VALID,0.549219,
2009-03-03, 03:37:04,VALID,999.204,VALID,0,VALID,95.0117,VALID,0,VALID,23.2347,VALID,27,VALID,0.465234,
2009-03-03, 03:38:04,VALID,999.196,VALID,0,VALID,95.004,VALID,0,VALID,23.2134,VALID,27,VALID,0.397656,
2009-03-03, 03:39:04,VALID,999.206,VALID,0,VALID,94.9964,VALID,0,VALID,23.2542,VALID,27,VALID,0.344531,
2009-03-03, 03:40:04,VALID,999.207,VALID,0,VALID,94.943,VALID,0,VALID,23.2134,VALID,27,VALID,0.302344,
2009-03-03, 03:41:04,VALID,999.205,VALID,0,VALID,94.9506,VALID,0,VALID,23.2347,VALID,27,VALID,0.191797,
2009-03-03, 03:42:04,VALID,999.228,VALID,0,VALID,94.9506,VALID,0,VALID,23.2134,VALID,27,VALID,0.229687,
2009-03-03, 03:43:04,VALID,999.224,VALID,0,VALID,94.943,VALID,0,VALID,23.2134,VALID,27,VALID,0.173047,
2009-03-03, 03:44:04,VALID,999.254,VALID,0,VALID,94.9506,VALID,0,VALID,23.1744,VALID,27,VALID,0,
2009-03-03, 03:45:04,VALID,999.265,VALID,0,VALID,94.9659,VALID,0,VALID,23.1939,VALID,27,VALID,0,